EWG321 EDDV-EDDF

Flight info

Callsign EWG321
Flight time N/A
Altitude 17000
Route DCT TOLTA T154 ROBAR T152 KERAX KERAX5A
Aircraft A320/M-SDE3FGHIRWY/LB1

Departure

Time N/A
Airport Hannover Airport (EDDV)

Arrival

Time 2026-04-17 12:56
Airport Frankfurt Main Airport (EDDF)
Time Latitude Longitude Altitude Speed Heading
2026-04-17 12:38 51.20334 9.27731 17219 ft 439 kts 175°
2026-04-17 12:38 51.17283 9.27992 17189 ft 438 kts 178°
2026-04-17 12:38 51.14226 9.28205 17232 ft 442 kts 179°
2026-04-17 12:38 51.11151 9.28352 17247 ft 442 kts 180°
2026-04-17 12:39 51.08074 9.28376 17251 ft 441 kts 182°
2026-04-17 12:39 51.05007 9.28273 17255 ft 441 kts 184°
2026-04-17 12:39 51.01944 9.28106 17255 ft 440 kts 184°
2026-04-17 12:39 50.98888 9.27933 17253 ft 440 kts 184°
2026-04-17 12:40 50.95826 9.28008 17242 ft 441 kts 176°
2026-04-17 12:40 50.92810 9.28910 17241 ft 443 kts 165°
2026-04-17 12:40 50.89933 9.30651 17242 ft 444 kts 155°
2026-04-17 12:40 50.87218 9.32996 17240 ft 445 kts 152°
2026-04-17 12:41 50.84514 9.35374 17241 ft 444 kts 152°
2026-04-17 12:41 50.81806 9.37733 17239 ft 444 kts 152°
2026-04-17 12:41 50.79093 9.40081 17240 ft 445 kts 152°
2026-04-17 12:41 50.76377 9.42427 17229 ft 445 kts 152°
2026-04-17 12:42 50.73658 9.44774 17219 ft 446 kts 152°
2026-04-17 12:42 50.70935 9.47122 17219 ft 447 kts 153°
2026-04-17 12:42 50.68145 9.49051 16935 ft 431 kts 166°
2026-04-17 12:42 50.65219 9.49643 16374 ft 420 kts 184°
2026-04-17 12:43 50.62355 9.48976 15748 ft 414 kts 193°
2026-04-17 12:43 50.59548 9.48034 15137 ft 410 kts 194°
2026-04-17 12:43 50.56779 9.47087 14550 ft 406 kts 194°
2026-04-17 12:43 50.54030 9.46136 13949 ft 402 kts 194°
2026-04-17 12:44 50.51313 9.45186 13333 ft 398 kts 194°
2026-04-17 12:44 50.48623 9.44232 12709 ft 394 kts 194°
2026-04-17 12:44 50.45969 9.43280 12091 ft 390 kts 194°
2026-04-17 12:44 50.43337 9.42334 11500 ft 385 kts 194°
2026-04-17 12:45 50.40745 9.41400 10917 ft 380 kts 194°
2026-04-17 12:45 50.38186 9.40460 10391 ft 374 kts 194°
2026-04-17 12:45 50.35738 9.39540 10218 ft 359 kts 194°
2026-04-17 12:45 50.33347 9.38630 10210 ft 338 kts 194°
2026-04-17 12:46 50.31152 9.37801 10215 ft 320 kts 194°
2026-04-17 12:46 50.29043 9.37008 10216 ft 304 kts 194°
2026-04-17 12:46 50.27072 9.36074 10122 ft 290 kts 208°
2026-04-17 12:46 50.25538 9.34145 9873 ft 283 kts 230°
2026-04-17 12:47 50.24348 9.31718 9488 ft 281 kts 233°
2026-04-17 12:47 50.23202 9.29243 9097 ft 280 kts 234°
2026-04-17 12:47 50.22075 9.26784 8732 ft 278 kts 234°
2026-04-17 12:47 50.20956 9.24341 8363 ft 275 kts 234°
2026-04-17 12:48 50.19851 9.21924 7989 ft 273 kts 234°
2026-04-17 12:48 50.18747 9.19508 7590 ft 272 kts 234°
2026-04-17 12:48 50.17649 9.17109 7261 ft 270 kts 234°
2026-04-17 12:48 50.16581 9.14700 7056 ft 269 kts 240°
2026-04-17 12:49 50.15911 9.11987 6666 ft 268 kts 251°
2026-04-17 12:49 50.15360 9.09220 6246 ft 267 kts 251°
2026-04-17 12:49 50.14820 9.06472 5854 ft 265 kts 252°
2026-04-17 12:49 50.14281 9.03733 5437 ft 264 kts 252°
2026-04-17 12:50 50.13750 9.01037 5258 ft 254 kts 252°
2026-04-17 12:50 50.13242 8.98456 5133 ft 244 kts 252°
2026-04-17 12:50 50.12752 8.95975 5005 ft 234 kts 252°
2026-04-17 12:50 50.12288 8.93624 4875 ft 217 kts 251°
2026-04-17 12:51 50.11818 8.91491 4742 ft 200 kts 249°
2026-04-17 12:51 50.11354 8.89523 4603 ft 187 kts 249°
2026-04-17 12:51 50.10911 8.87674 4429 ft 178 kts 248°
2026-04-17 12:51 50.10485 8.85890 4269 ft 175 kts 248°
2026-04-17 12:52 50.10056 8.84098 4090 ft 178 kts 248°
2026-04-17 12:52 50.09626 8.82292 3796 ft 177 kts 249°
2026-04-17 12:52 50.09200 8.80502 3545 ft 175 kts 249°
2026-04-17 12:52 50.08777 8.78718 3295 ft 175 kts 249°
2026-04-17 12:53 50.08352 8.76930 3056 ft 176 kts 249°
2026-04-17 12:53 50.07923 8.75123 2831 ft 185 kts 249°
2026-04-17 12:53 50.07486 8.73282 2593 ft 176 kts 249°
2026-04-17 12:53 50.07073 8.71543 2347 ft 166 kts 249°
2026-04-17 12:54 50.06682 8.69894 2115 ft 158 kts 249°
2026-04-17 12:54 50.06313 8.68350 1895 ft 153 kts 249°
2026-04-17 12:54 50.05931 8.66745 1568 ft 155 kts 249°
2026-04-17 12:54 50.05572 8.65229 1349 ft 145 kts 250°
2026-04-17 12:55 50.05230 8.63794 1071 ft 141 kts 250°
2026-04-17 12:55 50.04877 8.62338 895 ft 141 kts 249°
2026-04-17 12:55 50.04496 8.60939 701 ft 144 kts 250°
2026-04-17 12:55 50.04183 8.59515 484 ft 135 kts 255°
2026-04-17 12:56 50.03900 8.58189 368 ft 120 kts 252°
2026-04-17 12:56 50.03641 8.57084 355 ft 99 kts 249°
2026-04-17 12:56 50.03437 8.56239 353 ft 35 kts 242°
2026-04-17 12:56 50.03453 8.55879 350 ft 34 kts 279°
2026-04-17 12:57 50.03485 8.55598 345 ft 20 kts 282°
2026-04-17 12:57 50.03533 8.55620 348 ft 10 kts 74°
2026-04-17 12:57 50.03573 8.55784 353 ft 21 kts 67°
2026-04-17 12:57 50.03617 8.55994 357 ft 20 kts 71°
2026-04-17 12:58 50.03671 8.56223 360 ft 24 kts 69°
2026-04-17 12:58 50.03732 8.56469 359 ft 25 kts 69°
2026-04-17 12:58 50.03798 8.56739 360 ft 30 kts 69°
2026-04-17 12:58 50.03871 8.57041 364 ft 29 kts 70°
2026-04-17 12:59 50.03936 8.57330 362 ft 27 kts 69°
2026-04-17 12:59 50.04005 8.57599 367 ft 27 kts 68°
2026-04-17 12:59 50.04073 8.57878 368 ft 30 kts 70°
2026-04-17 12:59 50.04167 8.58146 367 ft 28 kts 36°
2026-04-17 13:00 50.04272 8.58194 366 ft 0 kts 355°
2026-04-17 13:01 50.04320 8.58179 367 ft 19 kts 341°
2026-04-17 13:01 50.04478 8.58085 368 ft 26 kts 341°
2026-04-17 13:01 50.04636 8.57998 361 ft 18 kts 335°
2026-04-17 13:01 50.04646 8.57991 362 ft 0 kts 335°
2026-04-17 13:02 50.04704 8.57956 360 ft 17 kts 341°
2026-04-17 13:03 50.04825 8.57878 361 ft 20 kts 319°
2026-04-17 13:03 50.04889 8.57682 363 ft 22 kts 294°
2026-04-17 13:03 50.04951 8.57471 361 ft 16 kts 295°
2026-04-17 13:03 50.04997 8.57401 359 ft 0 kts 334°